Zurück zum Katalog

STARLINK-31032

AktivKommunikationVLEO
NORAD 58535·PAYLOAD·🇺🇸 United States

Gestartet Dec 8, 2023 von Vandenberg Space Force Base

Loading…

Nächste Überflüge (nächste 24 Stunden)

TLE

AktuellSource: CelesTrak SupGP

Epoche: Sep 15, 2026, 02:35 UTC

1 58535C 23192E   26258.10812500 -.00017598  00000+0 -51992-3 0  2581
2 58535  53.1576 258.5795 0001262  85.7781  46.7017 15.34401001    18

Verfolge STARLINK-31032 in Echtzeit mit AllMySat

Download on the App Store